Location: Hermaringen
(48.5952°N, 10.2585°E)
Time: 06:01:19
(UTC+00:00)

Transit 2A - Pass Details

Date: 19 February 2026
Orbit: 590 x 954 km, 66.7° (Epoch: 14 March)

Event Time Altitude Azimuth Distance (km) Brightness Sun altitude
Rises 19:34:58 0° 325° (NW) 3,598 10.2 -28.3°
Reaches altitude 10° 19:37:37 10° 328° (NNW) 2,620 9.3 -28.7°
Enters shadow 19:42:46 58° 3° (N) 1,021 6.6 -29.5°
